Talnakh (Russia)  www.meteorete.it

situazione meteo Attuale :11:24:26
Temperatura : 1.5
Umidita :78.4 %
Pressione :990.9 hPa
Vel vento :1.3 Km
Direz. :SW
Precip.(mm.):0.0
   

Condizioni Meteo per: Talnakh, Russia

aggiornamento precedente: 22.05.2017 19:39
prossimo aggiornamento: 23.05.2017 08:00
Latitude: 69.49° N
Longitude: 88.4° E
Altitude: 174 m

hPa
mm °C
    Temperatura Precipitazioni Pressione vento Umidità Nuvoloso Nebbia
Keskiyön aurinko OGGI
13:00   990.9 hPa 1.3 m/s 78% 100%
15:00   990.4 hPa 1.6 m/s 85% 99%
17:00   990.7 hPa 3.1 m/s 91% 100%
19:00   991.2 hPa 4.4 m/s 91% 95%
21:00   992.1 hPa 5.0 m/s 93% 25%
23:00   993.4 hPa 4.2 m/s 96% 64%
Keskiyön aurinko DOMANI
01:00   995.0 hPa 3.7 m/s 97% 95%
03:00   996.4 hPa 3.9 m/s 98% 98%
05:00   997.5 hPa 4.5 m/s 97% 100%
07:00   998.4 hPa 3.7 m/s 96% 100%
09:00   999.4 hPa 3.0 m/s 96% 99%
11:00   1000.0 hPa 2.6 m/s 94% 99%
13:00   1000.9 hPa 2.6 m/s 93% 98%
15:00   1001.7 hPa 2.1 m/s 92% 98%
17:00   1002.3 hPa 1.9 m/s 92% 98%
19:00   1002.7 hPa 1.9 m/s 94% 97%
21:00   1002.9 hPa 1.2 m/s 96% 96%
23:00   1002.5 hPa 1.4 m/s 98% 97%
Keskiyön aurinko Giovedi 25.05.2017
01:00   1002.3 hPa 1.3 m/s 98% 94%
03:00   1001.7 hPa 1.3 m/s 98% 92%
05:00   1001.0 hPa 1.5 m/s 96% 63%
07:00   1000.0 hPa 1.7 m/s 93% 81%
09:00   998.7 hPa 2.0 m/s 85% 95%
11:00   998.0 hPa 1.9 m/s 82% 95%
13:00   997.2 hPa 2.8 m/s 83% 97%
15:00   996.8 hPa 3.7 m/s 84% 95%
17:00   996.8 hPa 3.7 m/s 87% 98%
19:00   996.7 hPa 4.2 m/s 89% 99%
21:00   996.9 hPa 5.0 m/s 94% 100%
23:00   997.0 hPa 5.5 m/s 96% 99%
Keskiyön aurinko Venerdi 26.05.2017
01:00   997.2 hPa 6.0 m/s 96% 100%
13:00 0.8 mm 1002.7 hPa 7.7 m/s 94% 100%
19:00 2.2 mm 1008.6 hPa 6.6 m/s 88% 100%
Keskiyön aurinko Sabato 27.05.2017
01:00 0.6 mm 1011.7 hPa 2.2 m/s 91% 89%
07:00 0.8 mm 1014.1 hPa 3.0 m/s 89% 81%
13:00   1014.4 hPa 5.6 m/s 70% 86%
19:00   1013.9 hPa 8.2 m/s 88% 100%
Keskiyön aurinko Domenica 28.05.2017
01:00   1012.8 hPa 7.6 m/s 88% 100%
07:00 2.4 mm 1013.5 hPa 5.9 m/s 94% 100%
13:00 3.8 mm 1014.3 hPa 5.2 m/s 92% 100%
19:00 6.5 mm 1012.4 hPa 6.2 m/s 92% 100%
Keskiyön aurinko Lunedi 29.05.2017
01:00 10.2 mm 1010.7 hPa 3.7 m/s 97% 100%
07:00 5.2 mm 1011.9 hPa 1.0 m/s 99% 100%
13:00 2.4 mm 1011.7 hPa 3.9 m/s 95% 98%
19:00   1012.0 hPa 4.7 m/s 92% 72%
Keskiyön aurinko Martedi 30.05.2017
01:00 3.1 mm 1011.7 hPa 5.4 m/s 94% 45%
07:00   1011.1 hPa 5.5 m/s 93% 80%
13:00   1010.5 hPa 6.6 m/s 83% 28%
19:00   1009.9 hPa 6.7 m/s 82% 87%
Keskiyön aurinko Mercoledi 31.05.2017
01:00   1008.2 hPa 7.1 m/s 84% 9%
07:00   1004.8 hPa 7.3 m/s 77% 91%
13:00   1003.0 hPa 8.0 m/s 67% 43%
19:00 9.7 mm 1009.5 hPa 2.3 m/s 89% 6%
Keskiyön aurinko Giovedi 01.06.2017
01:00   1012.4 hPa 6.7 m/s 98% 95%
07:00   1010.5 hPa 6.0 m/s 87% 48%
13:00   1006.8 hPa 5.9 m/s 76% 3%
19:00   1003.2 hPa 4.9 m/s 75% 29%